Location: Newark
(60.0000°N, 100.0000°E)
Time: 19:30:39
(UTC+00:00)

N. Korean satellite - Pass Details

Date: 19 November 2019
Orbit: 456 x 506 km, 97.2° (Epoch: 09 December)

Event Time Altitude Azimuth Distance (km) Brightness Sun altitude
Rises 21:47:40 0° 28° (NNE) 2,624 10.7 -26.5°
Reaches altitude 10° 21:51:32 10° 69° (ENE) 1,725 10.3 -26.0°
Maximum altitude 21:52:20 11° 82° (E) 1,687 10.3 -25.9°
Drops below altitude 10° 21:53:08 10° 94° (E) 1,719 10.3 -25.8°
Sets 21:56:56 0° 135° (SE) 2,584 10.8 -25.4°
